Regional Weather Roundup
Issued by NWS

Home | Current Version | Previous Version | Text Only | Print | Product List | Glossary On
Versions: 1 2 3 4 5 6 7 8 9 10 11 12 13 14 15 16 17 18 19 20 21 22 23 24 25 26 27 28 29 30 31 32 33 34 35 36 37 38 39 40 41 42 43 44 45 46 47 48 49 50
282
ASUS45 KBOU 212207
RWRCO

WEATHER ROUNDUP FOR COLORADO
NATIONAL WEATHER SERVICE DENVER/BOULDER CO
400 PM MDT SAT OCT 21 2017

NOTE: "FAIR" INDICATES FEW OR NO CLOUDS BELOW 12000 FEET WITH NO
SIGNIFICANT WEATHER AND/OR OBSTRUCTIONS TO VISIBILITY.

COZ001>005-013-030-031-212300-
...NORTHWEST COLORADO...

CITY           SKY/WX    TMP DP  RH WIND       PRES   REMARKS
CRAIG          FAIR      39  26  59 SW12      30.17S
HAYDEN         FAIR      41  23  48 SW16      30.18S
MEEKER         FAIR      45  23  42 VRB3      30.17S
RABBIT EARS PA FAIR      21  19  93 W9G22     30.15R WCI  11
STEAMBOAT SPGS CLOUDY    38  22  52 SW8       30.18R
WALDEN         NOT AVBL
$$

COZ006>008-011-212300-
...WEST CENTRAL VALLEYS...

CITY           SKY/WX    TMP DP  RH WIND       PRES   REMARKS
GRAND JUNCTION FAIR      54  10  17 NW13      30.17R
MONTROSE       FAIR      51   1  13 N5        30.18R
EAGLE          FAIR      45  14  28 SW14G21   30.20R
RIFLE          FAIR      51  17  26 VRB3      30.17R
DELTA          FAIR      58   8  13 W10G16    30.16S
NUCLA          FAIR      54   1  12 S6        30.21S
$$

COZ017>023-064>068-212300-
...SOUTHWEST COLORADO...

CITY           SKY/WX    TMP DP  RH WIND       PRES   REMARKS
DURANGO        FAIR      56   4  12 SW20G29   30.09R
CORTEZ         FAIR      55  -5   8 NW12G23   30.17R
PAGOSA SPRINGS FAIR      53  -6   8 S12G21    30.12R
TELLURIDE      FAIR      40   6  24 SW8       30.23R
WOLF CREEK PAS FAIR      32   3  29 SW9G22    30.27R WCI  24
$$

COZ009-010-012-014-032>034-037-058>063-212300-
...CENTRAL COLORADO...

CITY           SKY/WX    TMP DP  RH WIND       PRES   REMARKS
ASPEN          FAIR      39  17  41 VRB3      30.19R
BUENA VISTA    FAIR      44   2  17 N5        30.13R
COPPER MTN     FAIR      21   9  58 MISG      30.17R
BERTHOUD PASS  FAIR      12   1  62 NW43G51   30.07R WCI -12
COTTONWOOD PAS FAIR      41   7  24 W9G21     30.16R
GUNNISON       FAIR      43  10  26 W15G21    30.17R
KREMMLING      PTSUNNY   45  12  26 W7        30.17R
LEADVILLE      FAIR      27   8  44 NW18G26   30.17S WCI  14
MONARCH PASS   FAIR      23   9  54 W26G36    30.29R WCI   6
SALIDA         FAIR      49   8  18 SW16G23   30.19R
SUNLIGHT       FAIR      27  19  74 SW3       30.25R
WILKERSON PASS FAIR      30   0  27 W9        30.17R WCI  22
$$

COZ069>075-212300-
...SAN LUIS VALLEY/SANGRE DE CRISTO MOUNTAINS...

CITY           SKY/WX    TMP DP  RH WIND       PRES   REMARKS
ALAMOSA        FAIR      51   7  16 N16       30.10R
DEL NORTE      FAIR      53  -3  10 W9G22     30.09R
LA VETA PASS   PTSUNNY   45  14  29 S15G29    30.25R
SAGUACHE       FAIR      45  10  24 NW20G29   30.14R
$$

COZ035-036-038>040-212300-
...NORTHERN COLORADO FRONT RANGE...

CITY           SKY/WX    TMP DP  RH WIND       PRES   REMARKS
DENVER INTL AP FAIR      53   6  15 NW16      30.05R
DMNS CITY PARK   N/A     51   6  16 NW18G26   30.05S
AURORA         MOSUNNY   51   8  17 NW23G31   30.05R
FRONT RANGE AP MOSUNNY   54   7  15 NW18G24   30.06S
ERIE MUNI ARPT FAIR      53   5  14 W10G21    30.11R
BOULDER MUN AP FAIR      52  10  19 NW15G24   30.04F
CENTENNIAL     FAIR      50   5  16 NW12G24   30.05R
BROOMFIELD     MOSUNNY   50   9  18 W20G32    30.07R
FORT COLLINS   FAIR      52  13  21 NW24G30   30.05S
LONGMONT       FAIR      57  10  15 W10       30.06S
$$

COZ041-046-047-076>085-087-088-212300-
...PIKES PEAK/PALMER DIVIDE AND SOUTHERN FOOTHILLS...

CITY           SKY/WX    TMP DP  RH WIND       PRES   REMARKS
COLO. SPRINGS  FAIR      56  10  16 NW16G22   30.04R
A. F. ACADEMY  FAIR      52   6  15 N12G20    30.05R
SCHRIEVER AFB  FAIR      54   7  15 NW8       30.04R
CHEYENNE MTN   FAIR      48   8  19 CALM      30.00R
ELLICOTT         N/A    N/A N/A N/A N12       30.03R
FALCON         FAIR      50   7  17 N15G24    30.07R
FORT CARSON    FAIR      58   4  11 W10G21    30.02R
LIMON          FAIR      53   5  14 NW25G35   30.03R
MONUMENT HILL  FAIR      45   5  19 N12G20    30.09R
CANON CITY     FAIR      63  14  15 SW10G17   30.01R
WALSENBURG     NOT AVBL
TRINIDAD       FAIR      57  23  26 NE7G16    30.04R
$$

COZ042>045-048>051-090-091-212300-
...NORTHEAST COLORADO...

CITY           SKY/WX    TMP DP  RH WIND       PRES   REMARKS
GREELEY ARPT   FAIR      52  12  20 NW22G30   30.05S
AKRON          FAIR      55   7  14 NW25G33   30.01R
BURLINGTON     FAIR      59  15  18 NW29G37   30.00R
WRAY           FAIR      61  14  16 NW23G30   29.98R
YUMA           NOT AVBL
STERLING       FAIR      59  12  15 NW25G31   29.98R
HOLYOKE        FAIR      61  14  16 NW14G28   29.97R
FORT MORGAN    FAIR      56   6  13 W28G35    30.04R
$$

COZ086-089-092>099-212300-
...SOUTHEAST COLORADO...

CITY           SKY/WX    TMP DP  RH WIND       PRES   REMARKS
PUEBLO         FAIR      62  18  18 SW6       29.99R
LA JUNTA       FAIR      64   9  11 N14G22    30.01R
LAMAR          FAIR      64  11  12 N12       29.98R
SPRINGFIELD      N/A     62  21  20 N17G26    30.00R
$$




USA.gov is the U.S. government's official web portal to all federal, state and local government web resources and services.